Weather History for Hatteras, NC

Change the Weather History Date:

Tuesday, March 20, 2012

  Actual Average Record
Temperature  
Mean Temperature 67 °F 52 °F  
Max Temperature 77 °F 60 °F 77 °F (2012)
Min Temperature 57 °F 45 °F 26 °F (1981)
Degree Days  
Heating Degree Days 0 13  
Month to date heating degree days 114 296  
Since 1 July heating degree days 1525 2220  
Cooling Degree Days 2 0  
Month to date cooling degree days 8 0  
Year to date cooling degree days 8 0  
Growing Degree Days 16 (Base 50)    
Moisture  
Dew Point 60 °F    
Average Humidity 79    
Maximum Humidity 93    
Minimum Humidity 64    
Precipitation  
Precipitation 0.00 in 0.15 in 1.19 in (2003)
Month to date precipitation 1.99 3.02  
Year to date precipitation 10.45 12.28  
Snow  
Snow 0.00 in - - ()
Month to date snowfall 0.0  
Since 1 July snowfall T  
Snow Depth 0.00 in    
Sea Level Pressure  
Sea Level Pressure 30.22 in    
Wind  
Wind Speed 5 mph (South)    
Max Wind Speed 13 mph    
Max Gust Speed 17 mph    
Visibility 8 miles    
Events      
T = Trace of Precipitation, MM = Missing Value Source: NWS Daily Summary

Daily Weather History Graph

Daily Weather History Graph

Search for Another Location

Airport:

Trip Planner

Search our weather history database for the weather conditions in past years. The results will help you decide how hot, cold, wet, or windy it might be!

Date:

Astronomy

Mar. 20, 2012 Rise Set
Actual Time 7:05 AM EDT 7:14 PM EDT
Civil Twilight 6:40 AM EDT 7:39 PM EDT
Nautical Twilight 6:10 AM EDT 8:09 PM EDT
Astronomical Twilight 5:40 AM EDT 8:39 PM EDT
Moon 5:43 AM EDT (3/20) 5:42 PM EDT (3/20)
Length of Visible Light 12h 59m
Length of Day
12h 09m
Waning Crescent, 4% of the Moon is Illuminated
Mar 20
Waning Crescent
Mar 22
New
Mar 30
First Quarter
Apr 6
Full
Apr 13
Last Quarter

Hourly Weather History & Observations

Time (EDT) Temp. Dew Point Humidity Pressure Visibility Wind Dir Wind Speed Gust Speed Precip Events Conditions
12:51 AM 59.0 °F 55.9 °F 90% 30.19 in 8.0 mi Calm Calm - N/A   Clear
1:51 AM 57.0 °F 54.0 °F 89% 30.17 in 9.0 mi Calm Calm - N/A   Clear
2:51 AM 57.0 °F 54.0 °F 89% 30.17 in 7.0 mi Calm Calm - N/A   Clear
3:51 AM 57.0 °F 54.0 °F 89% 30.17 in 5.0 mi Calm Calm - N/A   Clear
4:51 AM 59.0 °F 55.9 °F 90% 30.17 in 8.0 mi Calm Calm - N/A   Scattered Clouds
5:51 AM 57.9 °F 55.9 °F 93% 30.19 in 5.0 mi Calm Calm - N/A   Clear
6:51 AM 63.0 °F 60.1 °F 90% 30.19 in 10.0 mi North 3.5 mph - N/A   Clear
7:19 AM 59.0 °F 57.2 °F 94% 30.20 in 1.8 mi Calm Calm - N/A   Clear
7:35 AM 59.0 °F 57.2 °F 94% 30.21 in 1.8 mi ESE 4.6 mph - N/A   Partly Cloudy
7:51 AM 60.1 °F 57.9 °F 93% 30.21 in 2.0 mi Calm Calm - N/A   Partly Cloudy
8:02 AM 60.8 °F 59.0 °F 94% 30.22 in 4.0 mi ESE 4.6 mph - N/A   Partly Cloudy
8:13 AM 62.6 °F 60.8 °F 94% 30.22 in 2.5 mi Calm Calm - N/A   Partly Cloudy
8:21 AM 64.4 °F 62.6 °F 94% 30.22 in 4.0 mi Calm Calm - N/A   Partly Cloudy
8:51 AM 68.0 °F 64.0 °F 87% 30.23 in 10.0 mi Calm Calm - N/A   Partly Cloudy
9:51 AM 71.1 °F 63.0 °F 75% 30.25 in 10.0 mi SE 6.9 mph - N/A   Clear
10:51 AM 70.0 °F 61.0 °F 73% 30.27 in 10.0 mi SSE 3.5 mph - N/A   Clear
11:51 AM 73.9 °F 60.1 °F 62% 30.26 in 10.0 mi SSE 4.6 mph - N/A   Clear
12:51 PM 73.9 °F 60.1 °F 62% 30.26 in 10.0 mi SE 5.8 mph - N/A   Scattered Clouds
1:51 PM 75.0 °F 62.1 °F 64% 30.24 in 10.0 mi SSE 5.8 mph - N/A   Clear
2:51 PM 72.0 °F 60.1 °F 66% 30.22 in 10.0 mi South 6.9 mph - N/A   Clear
3:51 PM 71.1 °F 62.1 °F 73% 30.21 in 10.0 mi SSW 9.2 mph - N/A   Clear
4:51 PM 70.0 °F 62.1 °F 76% 30.21 in 10.0 mi South 9.2 mph - N/A   Clear
5:51 PM 69.1 °F 61.0 °F 75% 30.21 in 10.0 mi South 11.5 mph - N/A   Clear
6:51 PM 66.9 °F 61.0 °F 81% 30.21 in 10.0 mi South 10.4 mph - N/A   Clear
7:51 PM 66.0 °F 61.0 °F 84% 30.22 in 10.0 mi South 10.4 mph - N/A   Partly Cloudy
8:51 PM 66.0 °F 61.0 °F 84% 30.23 in 10.0 mi South 10.4 mph - N/A   Partly Cloudy
9:51 PM 66.0 °F 61.0 °F 84% 30.25 in 10.0 mi SSW 9.2 mph - N/A   Clear
10:51 PM 66.0 °F 61.0 °F 84% 30.25 in 9.0 mi South 5.8 mph - N/A   Clear
11:51 PM 64.9 °F 61.0 °F 87% 30.25 in 8.0 mi WSW 3.5 mph - N/A   Clear